GFSSE_sfc_wetblb_021.txt.gz
Wetbulb
63.00 65.77 74.15 73.97 72.80 71.92 71.07 70.82 70.51 69.84 69.38 68.92 68.57 67.84 67.62 67.21 66.77 66.15 65.17 64.77 64.66 64.88 65.14 65.27 65.31 66.17 67.17 67.62 67.76 68.76 69.52 70.64 72.58 73.16 73.55 74.44 74.34 74.90 74.69 75.19 75.12 74.10 75.32
63.46 66.62 74.13 74.05 73.00 72.48 72.00 71.61 71.37 71.20 70.45 69.24 68.46 68.51 68.55 68.07 67.78 67.36 66.84 66.14 65.72 65.83 66.05 66.10 65.99 66.11 67.38 68.45 68.27 68.08 68.97 69.62 71.64 72.81 73.34 73.51 74.12 73.86 74.90 74.64 74.84 74.50 75.05
63.58 67.02 72.16 73.70 73.43 72.94 72.68 72.38 71.93 71.62 70.82 69.84 69.22 68.98 69.01 69.05 68.67 68.16 68.03 67.69 67.15 66.98 67.18 67.13 67.03 66.90 66.76 69.06 69.58 68.10 68.63 69.17 70.62 72.29 72.99 71.69 71.89 73.56 74.40 74.58 74.64 74.92 74.50
65.17 68.18 70.78 73.55 73.30 73.15 72.95 72.93 72.59 71.54 70.61 70.13 69.93 70.09 70.07 70.07 69.42 68.44 68.27 68.49 68.25 68.08 68.35 68.24 68.18 68.00 66.95 67.97 69.90 69.87 68.53 68.86 69.42 71.72 70.70 70.67 70.98 73.34 73.84 74.66 74.36 73.66 74.42
65.47 68.10 69.66 73.65 73.43 73.53 73.23 73.11 72.78 71.82 71.25 71.09 70.99 70.87 70.34 70.25 69.82 69.02 68.71 68.37 68.80 69.09 68.72 68.50 68.60 68.40 68.29 67.36 69.26 70.14 69.19 69.24 69.02 70.07 69.45 69.71 69.78 72.41 73.30 74.18 74.32 74.80 75.02
64.57 66.98 70.14 73.72 73.62 73.83 73.75 73.40 73.00 72.02 71.42 71.22 71.22 71.22 70.22 69.92 69.78 69.89 69.07 68.79 68.86 68.88 68.78 68.63 68.39 69.06 68.62 68.35 69.18 69.36 69.80 69.80 69.31 67.49 68.19 69.68 69.42 72.16 73.10 73.55 73.95 74.25 74.51
64.11 66.66 69.34 73.74 73.82 73.92 73.93 73.33 73.05 72.58 72.41 72.36 71.47 71.10 70.32 69.85 69.49 68.87 68.54 68.53 68.76 68.67 68.29 68.30 68.35 68.74 68.99 69.02 69.56 68.94 69.29 69.60 66.93 66.18 67.32 68.26 69.02 71.88 73.17 73.78 73.35 73.62 74.34
65.11 65.94 68.71 73.40 73.76 73.59 73.80 73.35 73.17 72.89 72.78 72.35 71.38 70.64 69.67 69.06 68.64 68.44 68.02 67.83 67.66 67.98 68.07 68.21 68.51 69.22 69.18 68.75 68.79 69.02 69.05 69.63 67.81 66.02 67.12 67.52 69.32 71.81 73.04 73.25 73.37 73.20 73.62
65.37 66.80 68.81 70.73 72.30 73.82 73.37 73.49 73.27 73.08 72.49 71.16 70.17 69.19 67.87 67.00 66.57 66.55 66.58 66.87 67.06 67.30 67.47 67.65 67.68 68.38 68.87 68.27 68.46 68.51 68.51 69.39 66.08 65.12 66.89 67.40 70.25 71.99 72.65 72.56 72.61 72.63 72.93
64.25 65.93 65.41 65.86 67.92 68.12 68.66 72.31 72.17 71.94 70.65 70.00 68.41 66.99 66.58 66.30 66.33 66.36 66.31 65.90 66.38 66.19 66.52 66.74 67.05 68.01 68.44 68.29 68.19 68.26 68.44 68.99 65.75 65.30 65.92 67.40 70.85 72.08 72.66 72.44 72.46 72.12 72.41
59.27 58.70 60.75 62.23 63.99 64.83 65.28 66.95 70.43 69.69 69.01 68.15 66.81 66.85 66.28 62.84 61.89 63.41 64.02 64.74 65.44 66.19 66.86 66.86 66.52 67.59 67.69 67.18 67.35 67.83 67.85 64.92 65.12 65.33 66.34 69.74 71.26 72.06 72.36 72.19 71.18 70.87 72.03
54.63 54.91 58.65 59.80 60.42 60.59 62.00 60.56 61.29 63.32 62.88 62.66 63.14 62.05 61.66 60.56 59.59 61.20 62.49 64.59 65.16 65.71 66.48 66.67 66.74 67.05 66.84 63.08 64.11 66.86 63.54 63.96 64.81 64.83 67.23 70.16 71.03 71.70 72.24 72.23 71.62 71.34 71.46
53.87 54.59 56.24 57.52 57.86 58.40 59.72 59.14 59.51 59.74 59.02 59.66 61.17 61.16 59.43 58.89 58.56 59.46 58.55 59.04 59.31 62.29 61.21 62.43 63.23 63.35 63.27 62.11 61.81 61.34 62.61 63.46 63.72 65.39 67.94 70.46 71.01 71.74 71.77 72.11 71.57 71.13 70.72
53.58 55.60 56.94 57.57 58.15 58.34 59.01 59.20 58.47 58.60 58.66 59.19 59.80 59.81 58.31 57.91 57.91 57.87 58.09 58.57 58.39 58.79 58.96 59.50 60.48 61.39 61.57 61.43 61.20 60.51 61.55 62.99 62.81 65.08 67.27 69.96 70.74 71.05 71.71 71.73 71.45 70.51 70.34
53.70 55.68 56.56 58.09 58.18 58.89 59.46 58.82 58.54 58.45 59.71 59.20 58.91 59.15 58.99 58.21 57.81 58.09 58.49 58.35 57.69 57.43 57.63 58.57 59.41 60.52 60.97 60.77 60.59 59.88 60.52 62.35 63.20 65.62 66.46 69.72 70.71 70.70 70.95 71.46 71.35 70.51 70.43
54.93 56.23 58.11 58.44 58.88 59.65 59.00 58.43 58.54 58.50 59.03 59.73 59.49 59.73 60.15 58.85 58.21 58.43 59.67 57.73 57.43 57.53 57.45 58.13 58.93 59.15 59.48 59.57 59.70 59.82 60.40 61.90 62.87 63.97 66.07 66.45 70.20 70.24 70.64 71.10 71.35 70.78 70.42
56.78 58.22 58.11 58.20 59.45 59.35 58.45 58.25 58.02 59.02 60.02 59.61 59.81 60.07 60.25 59.60 58.65 58.57 57.81 57.19 57.39 57.77 57.48 57.51 58.27 58.57 58.03 58.92 58.83 59.14 60.32 61.51 62.66 63.93 64.66 65.93 67.00 70.38 70.05 70.51 70.58 70.36 70.13
57.06 57.27 57.76 60.78 58.69 57.60 58.05 58.56 59.36 59.68 59.51 59.59 60.01 60.43 61.14 61.10 59.67 57.98 57.19 56.85 57.99 57.89 57.17 56.75 57.03 57.23 57.51 57.77 57.79 58.13 59.71 61.24 62.86 63.73 64.80 65.66 66.00 66.77 69.28 70.31 69.86 69.88 69.54
57.05 56.65 57.33 57.60 57.69 57.93 57.92 57.60 58.48 59.09 59.46 60.17 59.89 59.95 60.40 61.11 60.30 57.95 57.63 57.91 58.38 57.57 56.68 56.91 56.24 56.82 56.66 58.97 58.23 58.13 58.49 59.97 62.34 65.17 65.28 65.27 65.23 66.02 67.13 69.34 69.83 69.57 69.16
56.42 57.06 56.96 57.15 58.36 57.71 57.34 58.19 58.48 58.48 59.51 60.01 59.95 59.93 60.64 60.69 60.29 58.14 58.47 58.43 58.03 56.72 55.94 56.28 55.86 57.05 58.70 59.49 59.62 57.97 58.17 58.97 62.92 63.60 63.88 64.89 65.21 65.84 65.80 66.71 67.47 67.45 68.86
56.38 56.32 56.07 56.93 57.30 56.71 57.94 57.18 57.46 57.68 58.24 58.72 59.65 60.15 61.91 60.93 59.27 57.58 58.05 58.09 57.61 56.44 56.02 56.52 56.02 56.80 58.43 57.75 57.67 55.64 58.77 58.62 60.91 62.76 63.78 63.90 64.51 65.37 65.75 65.75 66.68 66.77 66.96
56.08 55.88 56.21 56.57 56.80 57.90 58.20 57.70 58.68 58.02 58.51 59.01 58.83 59.66 61.13 61.91 60.62 59.18 58.77 58.13 57.15 56.02 55.98 56.00 56.13 55.48 57.73 58.74 55.28 54.28 52.86 55.54 58.81 61.97 64.44 64.29 64.27 64.40 64.67 65.66 66.09 65.98 66.23
55.38 56.42 56.55 56.59 57.75 59.23 58.78 58.26 57.82 57.36 58.02 57.93 57.48 58.36 59.36 60.85 62.28 60.34 59.28 58.41 56.85 56.26 55.56 55.64 56.25 56.30 56.36 56.04 56.30 55.15 52.25 50.91 57.97 61.05 62.19 64.01 64.12 63.63 64.35 64.28 64.96 65.35 65.72
55.22 56.95 56.56 57.96 58.75 58.77 58.92 57.59 55.94 55.20 55.10 56.30 56.77 57.47 57.93 60.32 61.43 60.74 59.67 58.22 57.23 56.64 56.14 56.10 57.35 56.88 56.50 55.32 56.87 59.70 56.98 59.16 54.13 55.76 60.43 62.08 63.26 62.95 63.01 63.46 63.60 64.10 65.07
55.42 55.95 57.02 58.01 58.69 58.54 58.40 57.50 56.26 55.01 56.00 56.38 56.14 56.80 56.72 58.94 59.84 60.55 58.65 57.78 57.06 56.85 56.44 57.20 56.44 56.72 56.60 56.44 56.87 56.93 58.23 58.73 58.95 57.91 55.70 58.07 61.55 62.72 62.65 63.01 63.01 63.24 64.18
54.83 56.07 57.01 58.28 58.20 58.37 58.23 57.28 56.22 55.51 54.78 54.10 55.01 55.84 57.15 58.09 58.63 58.89 59.27 57.62 57.50 56.96 56.64 57.17 56.94 56.60 57.36 57.18 57.68 57.98 57.57 57.11 56.06 56.24 56.91 57.33 57.85 60.45 61.93 62.63 62.39 62.95 63.79

GFSSE_sfc_wetblb_024.txt.gz
Wetbulb
62.06 64.51 74.13 73.82 72.49 71.18 70.76 70.23 69.69 69.08 68.90 68.26 67.76 67.36 67.01 66.62 66.04 65.46 65.14 64.58 64.35 64.74 65.25 64.97 65.12 65.09 65.68 66.09 66.39 67.11 68.59 69.36 71.49 73.25 73.39 73.63 74.59 74.79 74.99 75.28 75.52 74.09 75.32
63.80 65.42 74.08 74.00 72.97 71.72 71.88 71.20 70.61 70.65 69.90 68.95 68.47 68.02 67.72 67.62 67.38 66.97 66.37 65.99 65.78 65.81 66.29 66.45 66.26 65.99 65.73 67.03 67.16 66.93 67.51 68.60 69.67 72.06 73.22 73.49 74.12 74.27 74.63 74.89 75.34 74.61 75.25
62.53 65.76 72.07 73.83 73.28 72.75 72.65 72.48 72.06 71.52 70.74 69.77 69.02 68.56 68.39 68.48 68.25 68.06 67.99 67.45 67.20 66.90 67.20 67.55 67.45 67.24 66.61 66.41 68.39 68.36 67.44 67.96 68.77 70.68 72.60 72.51 72.83 74.14 74.17 74.93 75.15 75.15 75.07
63.03 66.21 70.77 73.92 73.45 73.18 72.93 72.56 72.14 71.72 70.87 70.08 69.51 68.74 68.69 68.96 69.05 69.04 68.48 68.21 68.11 67.97 68.05 68.00 68.33 68.33 68.19 66.98 67.57 69.74 68.66 67.94 68.33 69.06 70.99 72.07 70.99 73.57 73.97 74.72 74.94 74.92 74.77
63.47 67.08 69.79 73.92 73.50 73.35 73.15 72.83 72.56 72.21 71.62 70.38 69.92 69.72 69.86 69.69 70.07 69.85 68.66 68.28 68.29 68.68 68.55 68.78 68.37 68.76 68.61 68.61 67.30 68.94 69.97 68.72 68.43 68.28 70.02 70.77 71.32 72.52 73.55 73.90 74.49 74.74 75.02
64.52 67.15 70.29 73.75 73.50 73.65 73.55 73.25 73.08 72.24 71.69 70.93 70.71 70.41 70.71 70.21 69.86 69.70 69.32 68.94 68.69 68.51 68.93 68.85 68.61 68.18 68.80 69.13 68.74 69.03 69.14 69.57 69.10 67.68 68.78 69.93 71.33 71.91 73.49 74.44 73.89 73.88 74.62
63.73 65.77 68.82 73.50 73.57 73.70 73.75 73.43 73.35 72.91 72.39 72.07 70.92 70.76 70.82 70.35 69.60 69.40 69.28 69.22 68.92 68.58 68.85 68.25 68.26 68.92 69.54 69.48 69.15 69.63 68.67 69.53 68.85 67.33 67.85 69.06 70.51 71.27 73.08 74.07 73.88 73.90 73.50
63.30 64.91 67.65 72.81 73.56 73.59 73.67 73.53 73.42 72.84 72.65 72.35 71.84 71.97 71.15 70.78 69.69 69.05 68.83 68.59 68.46 68.26 68.24 68.41 68.60 69.44 69.35 69.24 68.87 69.46 68.59 69.36 68.87 67.20 67.50 68.68 69.32 71.27 72.54 73.03 73.60 73.05 73.01
63.43 64.97 66.58 69.93 72.54 73.62 73.64 73.37 73.16 72.88 72.80 72.70 72.74 71.97 70.83 69.33 68.14 67.58 67.17 67.12 67.05 67.24 67.58 67.79 67.86 68.25 69.07 68.88 68.31 68.78 68.63 68.85 68.15 67.30 67.14 68.26 69.46 71.31 72.34 72.86 73.10 72.67 71.57
62.95 64.34 65.55 68.01 70.50 69.58 71.03 73.54 73.30 73.26 73.12 72.60 71.21 70.22 69.07 67.64 67.05 66.58 66.84 66.50 66.43 66.52 66.92 67.05 66.91 67.67 68.51 68.36 68.61 68.07 68.24 68.53 68.21 67.07 67.42 67.76 69.88 71.50 72.11 72.14 72.78 73.08 72.83
61.25 63.05 64.06 65.49 66.95 67.05 67.70 69.78 72.70 71.97 70.91 70.37 69.39 68.90 67.57 63.78 63.30 64.93 65.60 65.94 65.25 65.56 66.24 66.76 66.79 67.47 67.95 67.88 67.59 67.73 68.15 66.47 66.70 66.96 67.22 68.30 69.84 71.56 71.85 73.00 72.46 72.01 71.62
58.22 58.14 61.54 62.80 64.12 64.22 65.36 64.39 64.60 65.20 63.91 64.16 64.05 62.90 63.45 63.01 62.31 62.95 64.11 65.40 64.91 65.42 65.73 66.36 66.86 67.13 66.57 65.00 65.34 67.51 66.40 65.53 66.18 66.53 67.10 68.78 69.70 71.46 71.93 72.06 72.07 70.77 68.22
58.17 57.25 58.94 60.56 61.24 61.02 59.80 59.06 59.42 60.82 61.19 61.23 61.83 62.19 61.71 61.13 60.45 61.22 60.99 61.05 61.05 62.54 62.16 62.97 62.85 64.14 64.69 64.07 63.87 64.60 64.64 65.14 65.68 66.22 67.48 68.48 69.57 70.98 71.79 72.09 72.02 70.86 69.57
53.03 55.62 56.67 58.44 58.34 57.92 58.56 59.01 59.10 59.05 59.13 59.08 59.68 60.98 60.18 59.10 58.98 58.82 59.12 59.27 59.78 60.43 60.07 60.91 61.50 62.87 63.79 63.73 63.65 63.56 63.34 64.09 64.73 65.62 66.96 67.85 69.56 70.45 71.52 72.14 72.38 71.39 70.80
51.71 53.88 55.86 57.17 57.02 57.84 58.62 58.93 58.43 58.37 59.31 59.18 59.42 60.00 59.48 58.79 58.57 58.86 59.00 59.53 59.43 59.30 59.16 59.72 60.39 61.65 62.41 62.89 62.78 62.29 62.47 62.69 63.87 65.35 66.35 66.85 69.18 69.85 71.13 72.01 72.26 71.50 70.80
52.98 53.99 56.08 57.11 57.69 58.49 58.74 58.59 58.46 58.36 58.97 59.59 59.40 59.75 60.36 59.32 59.05 58.95 59.17 59.55 59.19 59.22 59.46 59.13 59.89 60.97 61.53 61.79 61.73 61.89 61.96 62.37 63.52 64.71 66.20 65.70 68.81 69.57 70.62 71.17 71.24 71.56 70.97
52.94 55.49 56.89 57.33 58.44 59.00 59.09 58.72 58.42 58.52 59.27 59.31 59.95 60.65 60.79 60.25 59.65 59.61 59.15 59.18 58.99 59.31 59.50 59.06 59.71 60.63 60.39 60.73 61.18 61.29 61.67 62.08 63.16 64.18 65.52 66.26 67.81 69.27 69.94 71.09 71.11 71.25 70.74
55.40 56.35 57.42 59.96 58.96 58.97 58.44 58.18 58.31 58.94 59.43 59.73 60.27 60.69 61.35 61.32 60.64 59.39 58.95 58.73 59.10 59.15 59.02 58.87 58.85 59.25 59.46 59.94 60.34 60.57 61.40 61.94 63.01 63.87 65.28 66.38 67.56 68.84 69.77 70.09 70.98 70.55 70.23
56.41 56.79 57.30 58.65 58.46 58.33 57.83 57.79 58.44 59.27 59.23 59.89 60.68 60.70 61.02 61.69 61.75 59.81 58.85 58.92 59.16 59.07 58.77 58.43 57.80 58.78 58.59 59.05 60.11 60.53 60.77 61.65 63.06 64.58 64.97 65.50 67.09 68.08 69.18 69.71 69.52 69.74 69.81
56.91 57.35 57.34 57.52 57.78 57.56 57.55 57.72 58.63 58.97 59.39 60.19 60.50 60.66 61.55 61.47 61.74 59.55 59.05 59.22 59.41 58.75 58.05 57.79 57.92 58.86 59.51 60.04 60.91 59.60 60.39 61.56 62.58 63.91 63.74 64.65 66.73 67.16 67.50 67.79 69.04 68.51 69.57
57.10 57.22 56.67 56.95 57.27 56.64 57.38 57.56 57.82 58.56 58.98 59.36 60.07 60.96 61.35 61.77 61.36 59.54 58.85 59.35 59.31 58.57 57.87 57.86 58.08 58.80 59.27 59.85 57.89 58.55 59.36 60.28 60.99 63.27 65.40 64.66 65.03 65.75 66.57 67.45 67.99 68.50 68.08
56.97 56.55 56.28 57.39 56.76 57.02 58.60 57.92 59.02 58.77 59.01 59.39 59.87 60.37 61.39 61.86 61.13 59.56 58.46 59.35 59.25 57.67 57.37 57.61 58.22 57.79 58.79 59.35 57.28 57.00 55.85 58.38 61.22 62.55 64.24 64.72 64.32 65.94 65.76 66.87 66.89 67.29 67.27
55.63 55.87 56.10 56.58 57.08 58.86 58.81 58.38 58.30 57.80 58.04 58.27 58.70 59.42 60.26 61.30 61.58 61.53 60.36 59.51 58.77 57.87 57.09 57.49 58.04 58.83 57.85 59.08 59.02 57.78 54.58 53.71 58.67 62.13 62.81 63.95 63.78 64.01 64.28 65.71 66.09 66.40 66.51
55.47 56.36 56.26 57.17 58.42 58.99 58.86 57.94 56.59 56.07 55.72 57.07 57.99 58.63 58.74 60.00 61.62 61.33 60.45 59.91 58.55 57.91 57.31 57.77 58.46 59.11 59.51 57.51 59.34 60.33 59.31 59.98 56.12 56.26 61.88 62.22 63.97 63.08 63.39 64.53 65.05 65.57 64.97
56.26 55.85 56.80 57.86 58.52 58.46 58.78 57.74 56.48 55.95 56.64 57.15 57.27 57.66 58.44 59.84 61.06 61.10 60.12 59.22 58.33 58.01 57.92 58.40 58.38 58.92 59.36 59.01 59.21 59.41 59.72 60.07 60.13 58.08 56.80 59.00 61.51 62.58 63.10 63.40 63.62 64.66 63.87
55.40 55.78 56.95 57.99 58.11 58.26 58.40 57.62 56.66 55.95 55.72 55.89 56.76 57.41 57.87 59.36 60.01 60.68 59.75 58.85 58.76 58.38 58.08 58.98 59.19 58.95 59.14 59.76 60.32 58.85 59.83 59.78 58.57 58.92 57.63 58.25 58.23 60.27 62.31 63.04 63.06 63.69 63.64

GFSSE_sfc_wetblb_030.txt.gz
Wetbulb
67.81 72.09 74.20 73.69 73.05 72.42 71.62 70.77 70.81 70.09 69.56 68.68 68.34 67.62 67.30 66.85 66.20 65.65 64.95 64.85 65.09 65.08 65.29 65.35 65.21 64.94 65.12 65.99 66.35 66.59 67.95 68.99 69.88 72.46 73.45 73.80 74.85 75.26 75.37 76.01 75.70 75.45 75.52
69.34 72.00 74.23 73.87 73.30 72.66 72.35 71.83 71.68 71.21 70.59 69.44 68.58 68.00 67.68 67.35 67.22 67.03 66.45 66.15 66.02 65.91 65.88 65.92 66.41 66.25 65.91 66.03 67.14 66.93 66.97 68.00 69.01 70.34 72.93 73.65 74.50 75.12 75.21 75.64 75.78 74.73 75.13
68.97 71.71 73.75 73.93 73.37 73.04 72.84 72.42 72.05 71.65 71.23 70.03 69.18 68.68 68.33 68.14 67.74 67.72 67.55 67.47 67.35 67.17 67.01 67.22 67.44 67.68 67.28 66.73 66.63 68.03 67.84 67.46 68.32 69.15 71.39 74.93 74.60 74.55 74.98 74.85 75.29 75.16 75.40
69.31 71.93 72.24 73.95 73.33 73.32 73.22 72.90 72.48 72.09 71.38 70.46 69.74 69.33 69.01 68.82 68.73 68.68 68.67 68.69 68.71 68.44 68.32 68.03 68.08 68.48 68.58 68.45 67.30 67.57 69.30 68.56 67.92 68.32 69.73 73.52 74.78 74.78 74.57 75.29 75.25 75.01 75.40
69.83 71.32 72.72 74.05 73.48 73.55 73.47 73.21 72.83 72.54 71.86 70.54 70.14 69.78 69.55 69.15 69.12 69.73 69.53 69.55 69.17 68.75 68.62 68.35 68.29 68.59 69.38 69.16 69.04 67.91 68.43 70.06 69.11 68.59 66.02 70.58 74.41 75.22 75.04 74.93 75.05 75.02 74.73
69.76 70.98 72.88 74.18 73.70 73.72 73.60 73.45 73.23 72.93 72.14 71.33 70.41 70.27 69.87 69.62 70.62 71.12 69.86 70.18 69.89 69.14 69.07 68.89 68.70 69.24 69.87 68.81 68.88 69.26 68.33 68.75 70.14 70.05 67.58 68.50 72.43 74.48 74.17 74.56 74.66 74.73 73.98
70.01 70.63 72.95 73.95 74.05 74.03 73.80 73.63 73.40 73.28 72.71 72.49 71.38 70.86 70.76 71.13 71.59 71.07 70.63 70.32 69.96 69.82 69.65 69.36 69.01 69.49 69.45 69.46 69.28 69.45 69.36 68.61 69.37 69.16 69.28 68.34 68.39 72.71 72.53 73.81 74.17 73.90 73.58
69.64 71.04 73.19 73.97 74.00 73.75 73.73 73.63 73.35 73.10 72.83 72.54 72.54 72.26 72.06 72.02 72.07 71.08 70.65 70.06 69.58 69.37 69.32 69.18 69.13 70.06 69.54 69.39 69.15 69.86 69.07 68.98 68.83 68.53 69.54 69.50 69.86 70.44 72.14 72.96 73.33 73.31 73.16
70.37 70.81 72.82 74.04 74.18 74.04 73.70 73.53 73.35 73.07 72.97 72.82 72.82 72.56 72.43 72.26 71.80 70.75 70.15 69.13 68.26 67.93 68.08 68.30 68.52 68.93 68.77 68.62 68.35 68.50 68.74 69.08 69.30 69.10 69.19 69.54 70.92 69.77 71.28 72.74 72.24 73.06 72.54
70.17 70.46 71.09 73.35 73.16 73.36 73.28 73.80 73.67 73.51 73.28 73.18 73.11 72.86 72.81 71.97 71.25 69.66 69.39 68.11 67.49 67.20 67.16 67.28 67.69 67.77 68.56 68.73 68.68 68.09 68.28 68.62 69.17 68.21 69.13 69.30 69.19 68.57 70.38 72.14 72.56 72.66 72.39
67.99 70.30 70.61 71.49 72.41 73.05 72.54 72.83 73.65 73.28 73.20 73.14 72.39 72.14 72.17 70.63 69.70 69.67 69.63 67.57 67.31 66.85 66.69 66.37 66.40 66.85 67.34 67.93 67.54 67.46 67.74 68.11 68.21 67.93 68.05 71.16 69.11 69.13 69.22 71.62 72.22 72.12 72.64
66.86 68.43 70.04 71.51 72.21 72.62 71.14 72.58 73.61 72.18 72.34 71.70 71.31 71.77 71.16 70.29 69.91 68.75 68.57 67.00 66.96 66.69 66.47 66.14 66.28 66.42 67.21 68.17 68.11 67.79 67.71 67.66 67.83 67.89 67.99 69.93 69.22 69.71 69.12 70.94 71.79 71.72 72.59
66.66 68.00 69.13 71.73 72.56 72.49 71.48 71.72 72.33 71.83 71.20 71.24 71.64 71.43 70.66 69.36 69.29 68.91 68.72 67.77 68.49 67.84 67.31 67.07 67.22 66.97 66.66 66.40 67.37 66.31 67.48 67.12 66.94 67.46 68.27 69.12 68.95 69.59 69.30 70.09 71.37 71.67 72.11
65.61 67.52 69.48 70.76 72.09 72.86 71.62 71.29 71.51 70.22 69.90 69.35 69.33 70.14 69.83 68.80 68.88 68.72 68.08 67.39 68.24 67.31 67.19 66.96 65.94 66.78 66.75 67.03 67.73 67.08 66.84 67.30 66.89 67.19 68.62 68.49 68.60 69.02 69.17 69.76 71.13 71.70 72.21
65.65 67.27 69.16 70.79 71.79 72.67 72.61 71.37 70.60 69.21 67.95 68.66 68.26 69.28 69.40 68.23 68.30 68.48 68.30 67.59 67.33 66.50 65.68 66.24 65.86 65.85 66.37 66.50 66.88 66.62 66.55 67.22 67.31 67.70 67.80 68.85 68.40 68.39 68.73 69.60 71.24 71.67 71.99
67.02 67.46 69.26 70.11 71.78 72.30 72.40 71.78 69.55 69.15 68.63 68.26 67.72 68.68 69.55 68.89 68.57 68.14 67.36 66.87 66.74 66.89 66.98 67.22 65.67 65.39 65.73 66.04 66.30 67.25 66.50 67.41 68.07 67.63 67.94 68.56 68.25 67.81 68.13 69.65 70.86 71.62 71.72
67.67 68.30 68.57 69.42 71.34 71.79 71.27 69.95 69.34 68.60 68.37 67.50 67.70 69.45 69.50 69.56 69.08 68.75 67.82 66.71 67.17 67.70 68.08 67.71 66.31 66.06 65.53 65.70 66.34 67.05 67.20 67.38 67.13 67.53 67.10 66.56 68.81 67.85 68.00 69.62 70.79 71.47 71.68
68.11 67.71 68.02 67.91 70.08 70.76 70.67 69.37 68.32 68.36 67.96 67.67 68.31 69.03 69.51 69.44 69.45 69.06 67.40 66.14 67.31 66.99 67.19 66.97 65.61 64.57 63.99 65.80 65.22 65.35 66.40 66.34 66.69 66.55 65.95 66.89 68.82 67.98 69.23 69.87 70.48 71.02 71.36
67.75 67.73 66.67 67.86 68.91 69.58 69.40 68.97 69.09 69.26 67.83 67.89 68.62 68.81 69.22 69.24 68.96 68.57 67.41 67.04 67.71 66.36 66.20 65.85 65.41 64.77 64.87 64.65 64.13 64.79 66.35 65.70 65.88 64.70 65.97 67.67 69.45 68.51 70.62 70.71 70.29 70.03 70.87
66.65 66.95 67.01 67.29 68.59 69.02 68.70 68.82 67.99 67.46 67.54 68.26 68.48 68.57 69.09 69.19 68.65 67.61 67.38 67.28 67.15 65.72 65.65 65.71 64.64 64.99 64.48 64.74 64.89 64.76 65.45 65.07 64.85 65.79 67.57 68.47 69.15 69.99 71.44 71.79 72.11 70.81 69.91
65.66 66.07 66.63 66.97 68.41 67.86 67.07 66.11 65.95 65.05 66.60 67.67 68.20 69.04 68.70 68.73 67.55 67.72 67.76 66.60 66.14 65.24 65.33 65.01 65.52 64.05 63.92 65.44 64.43 63.83 64.60 66.63 66.28 67.41 67.83 68.52 68.70 70.17 71.34 71.86 73.16 73.13 69.29
65.05 66.10 66.73 67.22 68.08 68.00 67.18 67.34 66.68 66.84 67.86 68.12 68.80 68.44 68.46 68.24 67.25 67.10 66.28 65.94 65.61 63.54 64.79 64.94 64.67 64.54 63.61 65.64 62.90 62.84 58.11 62.53 64.57 66.55 67.31 67.17 67.25 69.72 70.59 70.94 71.73 70.18 69.00
64.87 65.88 66.45 67.64 68.14 68.38 68.55 67.63 68.00 67.88 67.45 66.18 66.74 67.03 67.65 67.75 67.56 67.34 65.79 65.87 64.15 64.95 64.70 65.35 65.27 63.55 63.14 64.90 65.23 63.11 58.37 56.35 59.79 65.98 66.42 66.96 68.29 68.03 69.20 70.51 70.64 69.29 67.59
64.94 66.31 67.18 67.71 68.04 68.03 68.40 67.49 67.03 65.16 64.08 66.96 66.12 67.98 66.74 67.43 66.77 66.58 66.14 65.31 65.63 66.19 65.47 65.33 65.58 64.57 65.36 63.69 63.96 64.23 65.02 63.41 57.85 58.90 65.08 66.83 67.92 68.07 68.03 70.20 70.12 68.95 68.98
65.27 66.04 67.11 67.68 67.38 68.12 68.34 67.97 66.39 65.72 65.91 66.86 67.15 66.00 67.50 67.23 65.82 65.95 66.56 66.74 66.36 66.93 66.12 65.56 64.32 64.91 64.95 65.28 65.19 64.17 64.80 64.68 65.88 61.74 59.13 62.58 66.32 67.06 67.16 69.70 67.54 67.54 67.78
65.51 66.16 66.69 66.61 67.38 68.15 68.23 68.08 66.53 66.02 65.48 65.67 65.99 66.05 66.69 67.65 66.72 66.64 66.41 66.57 66.93 66.69 65.46 64.95 65.43 65.61 66.55 65.96 66.39 66.09 65.46 64.44 63.23 63.55 62.71 62.50 61.36 63.07 65.65 66.57 66.76 64.90 65.21

GFSSE_sfc_wetblb_033.txt.gz
Wetbulb
69.17 73.31 73.89 73.44 72.93 72.33 71.32 70.28 70.19 69.75 69.22 68.66 68.10 67.45 66.60 65.97 65.62 65.33 65.15 65.49 65.48 65.49 65.29 65.62 65.46 65.28 65.36 66.00 66.41 66.85 67.62 69.36 70.45 72.40 73.86 74.01 74.72 75.20 75.64 75.91 75.41 74.83 75.65
69.61 73.89 73.97 73.57 73.26 72.78 72.25 71.68 71.29 71.18 70.32 69.31 68.71 68.07 67.29 66.91 66.56 66.12 65.98 65.93 65.69 65.74 65.95 66.02 66.36 66.85 66.57 66.44 67.12 67.40 67.35 67.67 69.15 70.59 72.29 73.99 74.42 74.84 75.06 76.00 75.78 74.90 75.17
69.29 74.27 72.74 73.57 73.47 73.24 72.89 72.42 72.22 71.80 71.30 70.16 69.29 68.63 68.12 67.86 67.56 67.35 67.21 67.11 67.08 67.05 66.80 67.04 67.34 67.56 67.94 67.64 67.16 67.90 68.50 68.15 68.03 68.96 70.14 73.02 73.94 74.72 75.13 74.81 75.58 75.00 75.35
69.78 74.49 71.29 73.57 73.42 73.54 73.37 72.92 72.50 72.20 71.40 70.32 69.59 69.24 68.86 68.62 68.33 68.12 68.38 68.42 68.46 68.55 68.10 67.88 67.93 68.34 68.77 68.85 68.82 67.75 68.50 69.87 68.98 68.17 66.80 70.47 72.97 75.75 74.86 75.03 74.87 74.72 75.22
69.78 74.10 72.86 73.77 73.35 73.50 73.50 73.08 72.93 72.51 71.91 70.68 70.24 70.08 69.72 69.43 69.40 69.24 69.31 69.47 69.44 69.45 69.01 68.74 68.47 68.39 68.91 69.64 69.53 69.36 68.41 68.69 70.46 69.65 65.56 64.77 70.23 75.11 75.70 74.47 74.60 74.96 74.80
69.08 71.94 74.42 73.65 73.53 73.57 73.90 73.58 73.23 73.10 72.35 71.52 70.69 70.46 70.23 69.89 70.28 70.44 69.70 69.67 69.79 70.07 69.76 69.47 69.39 68.99 69.15 70.07 69.49 69.29 69.67 68.83 69.28 69.49 67.73 65.93 67.14 74.37 73.63 74.49 74.22 74.77 74.37
68.91 70.39 74.24 73.87 73.85 73.85 73.95 73.75 73.63 73.20 72.76 72.38 71.69 71.11 70.46 70.64 71.13 70.86 70.55 70.54 70.47 70.14 70.10 69.99 69.84 69.93 70.25 69.58 69.25 69.69 69.33 69.66 68.89 67.77 68.56 68.55 67.61 72.32 72.99 73.10 74.07 73.82 73.78
69.08 70.49 72.47 74.36 73.85 73.70 73.75 73.87 73.60 73.35 73.03 72.83 72.63 72.03 72.08 71.93 71.71 71.51 71.21 70.94 70.36 69.80 69.65 69.16 69.38 69.17 69.26 68.98 68.82 68.97 68.91 68.94 69.43 68.63 68.61 69.57 71.26 71.59 71.61 72.48 72.48 73.20 73.38
69.56 70.35 71.07 75.22 74.31 73.92 73.92 73.55 73.45 73.39 73.19 73.02 72.80 72.53 72.58 72.06 72.09 71.61 71.20 70.49 69.60 68.89 68.28 68.16 68.33 68.55 68.80 68.71 68.68 68.81 68.75 68.90 68.66 68.70 68.51 68.71 71.89 70.20 69.92 71.39 72.51 72.83 72.88
70.03 69.57 70.53 73.18 74.64 73.82 72.76 73.82 73.84 73.66 73.29 73.26 72.90 72.68 72.55 72.11 71.67 71.69 71.08 69.89 69.01 67.73 67.59 67.19 67.34 67.60 68.02 68.75 68.22 68.65 68.43 68.75 68.54 68.10 68.66 69.36 70.84 69.55 69.16 70.79 72.21 72.19 72.65
67.97 69.96 70.63 70.04 72.48 73.28 72.16 72.94 73.67 73.20 72.90 73.00 72.31 72.16 72.46 70.27 69.95 71.17 70.80 70.71 68.66 67.86 67.37 67.16 66.85 66.76 67.12 67.54 68.07 67.85 68.15 66.97 67.24 67.86 67.97 71.34 70.17 69.67 68.41 68.90 71.86 72.21 72.28
66.58 68.43 69.92 70.74 72.35 72.66 71.39 73.53 73.76 72.10 71.60 71.36 71.26 71.26 71.98 72.05 70.85 69.65 70.08 67.72 68.05 67.91 67.53 67.24 67.02 66.71 66.74 66.29 66.28 68.25 67.30 66.75 66.74 67.38 67.99 70.71 70.00 68.91 68.36 68.40 71.11 71.77 72.19
65.77 67.35 69.15 74.30 75.02 73.45 71.76 71.67 72.91 72.66 71.69 72.22 72.23 73.81 73.64 70.65 69.68 69.35 69.35 68.72 68.50 68.70 67.85 67.45 66.72 67.05 67.07 65.86 66.35 66.39 67.48 67.03 66.31 67.10 69.17 70.83 69.71 69.33 69.16 68.94 70.26 71.72 71.76
63.86 67.35 68.63 71.76 74.76 75.52 72.80 71.22 71.93 72.06 72.12 71.18 71.43 73.20 72.12 69.53 69.99 69.82 68.83 69.08 70.32 68.15 68.27 69.25 66.57 68.14 68.25 66.93 66.84 66.92 67.57 67.69 66.90 66.54 69.56 70.78 69.74 69.13 69.11 69.16 69.66 71.30 71.62
63.69 65.38 68.23 72.68 74.82 75.11 75.89 72.43 72.60 72.80 70.87 71.36 70.38 70.73 70.05 69.13 70.48 69.47 69.62 68.52 68.48 68.58 67.57 66.73 66.92 66.74 66.70 65.90 65.90 65.79 66.22 67.51 68.14 67.51 66.85 69.28 68.70 68.88 68.92 69.13 69.72 71.39 71.67
67.08 67.48 69.18 72.77 75.37 74.07 74.30 75.89 74.03 74.02 71.28 69.49 69.11 69.21 70.61 69.86 70.73 68.98 68.93 68.60 68.19 69.15 68.00 69.04 67.39 65.11 65.10 65.96 66.33 66.62 67.22 67.23 67.16 68.69 67.45 69.50 69.66 68.94 68.73 68.97 69.34 71.26 71.82
67.97 69.82 70.49 74.21 75.15 74.98 74.63 74.63 73.76 71.45 70.19 68.67 68.78 70.12 69.91 70.55 70.42 69.72 68.17 67.96 68.20 70.85 68.84 68.85 67.36 67.98 65.98 66.02 66.43 67.37 66.84 66.59 66.33 67.81 67.16 66.51 68.71 68.70 68.77 68.51 69.21 71.15 71.64
70.63 70.46 70.84 69.35 72.05 73.70 74.49 73.94 71.96 69.98 69.31 68.63 68.59 69.07 70.33 70.60 70.40 69.69 68.11 67.87 68.23 69.19 69.14 67.43 66.07 65.95 65.07 66.73 67.17 67.27 66.30 67.31 67.33 67.56 67.38 67.07 66.84 68.75 68.70 68.83 69.90 71.23 71.67
70.39 70.24 70.26 71.69 70.63 72.46 73.91 72.49 72.02 73.09 69.53 68.67 68.78 68.78 69.89 70.14 69.78 69.67 69.12 68.50 69.65 68.76 67.30 67.24 65.78 67.07 64.50 65.73 65.65 66.31 66.18 66.59 66.52 66.65 67.01 66.89 68.71 69.05 68.73 69.85 70.67 70.91 71.66
68.82 70.26 71.04 70.27 72.38 73.45 72.03 71.72 69.38 68.87 68.84 68.38 68.42 68.83 69.95 69.71 69.15 69.25 68.59 68.72 69.18 68.02 67.21 66.34 66.07 66.09 65.69 65.01 64.83 64.76 65.68 66.47 64.98 66.18 65.93 66.80 67.39 68.73 68.67 70.56 71.26 70.17 70.78
68.03 69.28 69.41 69.12 72.64 71.34 68.88 67.64 67.46 66.70 67.72 67.45 68.55 69.43 69.69 69.20 69.24 69.33 68.58 68.45 68.54 67.24 66.27 66.58 66.36 65.07 65.42 66.17 64.56 64.50 65.41 66.69 65.41 66.04 66.53 66.13 67.45 68.44 69.37 70.90 71.32 73.14 70.51
67.63 68.30 68.51 68.84 70.42 70.46 69.28 70.03 68.60 68.06 67.26 68.28 68.56 69.66 69.41 68.92 69.52 68.40 68.28 67.99 67.75 67.30 66.20 65.02 65.77 64.53 65.14 66.04 62.59 63.50 59.26 60.89 62.85 65.03 67.27 68.14 67.58 68.12 69.06 70.57 71.55 71.61 71.44
67.08 67.75 68.18 68.97 69.49 70.93 71.60 69.96 68.98 68.98 68.98 66.98 67.03 67.66 68.63 68.21 68.00 68.40 67.82 67.23 67.43 67.35 65.54 66.31 66.64 63.87 63.58 64.73 65.61 63.66 59.74 56.84 58.98 64.18 66.35 66.65 67.41 67.93 69.81 70.66 71.16 70.90 70.06
67.11 68.09 68.81 69.09 69.12 69.38 70.17 70.09 69.88 66.17 64.61 66.28 67.57 66.94 68.30 67.62 67.36 67.33 67.49 66.95 66.86 66.05 67.68 65.68 67.10 65.40 65.20 63.37 66.07 64.67 65.07 63.21 57.86 57.64 64.94 67.11 69.08 68.29 69.16 71.59 71.33 69.95 68.97
67.50 67.66 68.62 68.99 68.71 69.28 69.14 69.61 67.60 66.89 65.47 66.58 66.83 67.09 68.33 68.48 67.94 66.92 67.12 66.83 66.74 68.54 66.16 66.24 65.68 65.91 65.38 65.31 63.35 64.85 64.74 63.52 64.96 59.48 58.72 61.72 66.82 68.45 69.03 69.90 69.16 69.07 69.92
67.20 67.75 68.12 68.12 68.23 68.74 68.51 68.73 68.39 67.01 66.30 65.80 66.20 66.23 67.28 69.08 68.09 67.34 66.32 66.90 67.44 66.96 66.35 65.67 65.59 65.93 66.56 66.95 65.93 66.38 64.70 63.14 62.32 63.30 62.78 62.96 63.42 64.32 67.53 68.15 67.19 66.44 66.71

GFSSE_sfc_wetblb_036.txt.gz
Wetbulb
70.62 70.18 73.51 73.33 73.01 72.51 71.87 70.99 70.96 70.37 70.04 69.70 68.88 68.27 68.14 68.08 67.35 66.62 66.33 66.06 66.11 65.88 65.74 65.67 65.62 65.33 65.27 65.56 66.18 66.94 67.89 68.60 70.29 71.75 73.20 74.47 74.76 75.06 75.66 76.01 75.29 73.97 75.39
71.93 70.44 73.36 73.07 72.88 72.58 72.17 71.87 71.71 71.26 70.71 70.08 69.29 68.69 67.84 67.36 66.79 66.62 66.52 66.46 66.18 65.78 65.75 65.92 66.20 66.62 66.64 66.41 66.29 67.58 67.56 68.14 69.08 69.66 71.12 72.38 74.55 74.54 75.08 75.80 75.32 75.03 74.99
72.09 70.57 71.50 73.04 72.99 72.86 72.41 72.27 71.85 71.66 71.16 70.67 70.15 69.41 68.50 67.65 67.36 67.20 67.22 66.85 66.82 66.68 66.32 66.28 66.66 67.08 67.81 67.92 67.60 67.37 68.33 68.86 69.09 68.86 69.00 68.32 71.65 75.02 74.96 74.53 75.37 74.82 74.69
72.96 71.51 70.47 73.30 73.20 73.29 72.85 72.60 72.43 72.06 71.68 71.11 70.72 70.10 69.36 68.42 67.76 67.52 67.68 67.59 67.60 67.87 67.71 67.48 67.59 67.92 68.35 68.86 68.91 68.45 68.11 68.72 70.08 69.54 65.60 64.24 69.89 75.59 75.56 74.92 74.72 75.18 74.79
73.45 72.66 70.93 73.35 73.30 73.40 73.27 72.95 72.68 72.48 72.03 71.55 70.61 70.56 70.18 69.52 68.89 68.81 68.97 69.02 69.01 69.21 69.28 68.94 68.78 68.73 68.68 69.19 69.75 69.70 69.19 68.65 68.83 69.92 66.60 62.75 62.09 68.55 74.94 74.53 74.13 74.19 74.57
71.75 73.07 73.18 73.20 73.37 73.47 73.60 73.18 72.88 72.66 72.38 71.96 71.15 71.20 70.82 70.19 70.48 70.71 69.90 69.49 69.51 69.66 69.89 69.90 69.61 69.47 69.55 70.36 70.82 69.97 69.97 69.88 68.99 66.50 67.25 66.79 65.68 74.61 74.64 74.26 74.04 73.77 73.97
68.50 72.46 73.57 73.25 73.60 73.82 73.70 73.62 73.15 72.83 72.53 72.18 72.01 71.80 71.45 71.20 71.16 71.04 70.49 70.22 70.52 70.55 70.14 70.08 70.10 69.86 69.78 70.13 69.64 69.29 70.01 69.34 68.71 66.95 66.36 67.65 65.68 73.36 74.46 73.76 72.93 73.67 73.05
69.78 71.59 73.98 73.39 73.25 73.55 73.77 73.57 73.22 72.83 72.65 72.46 72.31 72.31 71.88 71.76 71.81 71.52 71.32 71.11 71.17 70.55 69.77 69.68 69.31 70.00 69.47 69.26 69.81 69.96 69.71 68.85 67.40 67.45 67.54 66.31 70.97 73.44 73.44 72.94 72.67 72.80 72.98
70.33 70.78 74.45 73.54 73.31 73.77 73.52 73.32 73.32 72.92 72.65 72.75 72.58 72.46 72.26 72.31 72.23 72.06 71.89 71.54 71.22 70.69 69.88 68.49 68.10 68.61 69.24 69.63 69.29 69.51 69.18 69.01 66.76 66.09 67.29 67.01 71.97 72.85 72.10 72.14 72.50 72.26 72.21
69.54 69.07 74.14 73.80 72.83 72.49 72.73 73.77 73.69 73.38 73.23 73.16 73.04 72.89 72.69 72.55 72.21 71.99 71.74 72.03 71.20 70.48 68.98 67.86 67.66 67.62 68.58 69.02 69.18 69.33 69.11 69.15 67.21 66.42 66.05 67.54 70.97 70.34 70.35 70.88 71.94 72.04 72.06
66.66 69.36 70.50 73.95 73.61 72.81 71.65 72.52 73.73 73.57 73.49 73.21 72.94 72.89 72.18 70.26 69.17 70.31 70.63 71.14 70.90 70.41 69.01 68.38 67.60 67.53 67.66 67.49 68.14 68.29 68.72 66.62 66.24 66.04 65.86 70.05 71.24 69.95 69.10 70.00 71.51 72.09 72.06
64.18 65.66 69.30 70.05 72.56 72.95 71.99 71.39 72.50 72.40 72.00 71.54 70.55 70.58 70.68 69.98 70.03 70.22 70.15 72.29 70.62 70.34 68.97 68.48 67.99 67.73 66.85 64.83 64.16 67.89 66.23 65.86 65.22 64.95 65.98 71.26 71.04 70.22 69.09 68.76 69.90 71.81 71.74
64.78 64.95 68.30 70.26 71.85 72.25 70.98 71.17 72.61 71.87 70.98 70.32 70.16 70.52 71.16 71.01 71.18 69.91 68.28 68.39 68.21 69.21 67.11 67.93 66.88 66.09 65.62 65.14 64.09 66.10 66.18 66.00 64.72 64.54 66.57 71.16 71.50 70.42 69.61 68.85 68.86 71.29 71.66
63.76 67.48 67.73 71.13 72.32 71.59 71.41 71.49 72.45 72.16 71.06 70.11 70.32 71.67 71.18 71.57 70.58 69.60 68.60 69.57 67.50 67.74 67.58 67.87 66.14 66.32 65.86 67.00 65.41 64.52 65.77 65.54 65.00 65.57 67.76 71.18 70.90 70.32 69.72 69.55 69.09 70.49 71.59
66.06 67.82 68.86 71.94 71.73 72.78 72.82 71.36 71.62 71.86 71.55 71.04 71.58 71.86 71.54 70.23 69.03 70.14 69.57 69.30 68.79 68.62 67.79 66.39 66.55 66.37 65.86 65.22 64.08 64.67 64.85 65.87 66.07 67.05 67.10 70.72 70.21 70.14 69.48 69.60 69.36 70.12 71.74
68.29 69.58 70.80 72.66 72.46 73.10 71.29 73.88 72.88 73.19 72.70 71.92 71.37 71.11 70.95 70.04 69.88 69.60 70.14 68.97 68.28 69.22 68.44 67.52 66.59 65.82 65.50 65.04 63.89 64.91 65.32 65.68 66.47 66.40 66.18 67.07 69.04 69.23 69.48 69.25 69.42 69.79 71.84
69.02 72.09 73.02 73.49 73.61 72.85 73.23 72.69 75.86 73.65 73.17 70.98 70.29 71.78 70.96 70.41 70.53 70.70 69.55 68.97 68.05 68.88 68.22 67.53 66.98 66.45 65.65 65.23 64.10 64.08 65.11 65.32 65.68 65.71 65.99 66.09 66.89 69.33 69.28 69.41 69.25 69.35 71.64
70.60 71.87 73.39 69.51 73.55 73.45 73.82 73.42 72.93 73.30 71.91 72.06 70.28 70.95 70.55 71.23 70.90 70.65 68.74 67.99 68.55 68.66 68.17 66.68 65.92 65.03 64.72 64.63 63.82 63.82 63.95 64.87 65.99 65.46 66.45 65.75 65.82 66.43 68.40 69.76 70.02 69.89 71.64
71.65 72.33 72.16 72.56 72.78 73.15 74.23 73.86 73.45 73.91 70.27 69.96 71.09 70.39 70.70 70.24 70.23 69.28 68.18 68.63 69.29 68.08 67.04 66.57 65.51 65.38 64.13 63.87 63.95 64.06 64.66 64.76 65.01 65.18 65.22 65.79 65.75 66.69 68.10 68.68 69.48 70.33 71.69
70.65 72.17 74.45 73.16 73.12 73.06 73.15 73.61 72.12 71.18 70.69 71.15 70.28 69.84 71.00 70.67 70.20 68.89 68.30 68.94 68.46 67.28 66.47 65.37 64.98 65.16 64.22 62.12 64.19 63.46 64.04 64.48 64.44 64.87 65.21 65.82 64.51 64.84 67.34 66.75 67.37 68.98 71.16
70.52 71.37 72.72 72.17 73.14 72.03 71.43 69.72 68.92 67.59 69.06 68.83 69.65 70.43 70.19 70.27 69.59 69.21 68.36 68.14 67.37 66.43 65.27 65.14 64.60 63.83 62.88 63.82 61.94 61.86 62.69 63.77 63.51 63.79 63.93 64.05 65.01 66.42 66.64 66.67 67.73 67.55 68.94
69.94 70.95 71.28 71.03 72.81 71.64 71.15 70.11 69.08 68.72 68.08 68.48 69.09 70.28 70.11 69.75 69.55 68.65 68.27 67.53 66.68 66.14 65.00 64.65 64.29 62.43 62.61 64.23 60.39 59.82 57.19 59.44 62.07 63.09 64.28 65.06 64.55 65.67 66.48 68.65 67.54 67.64 68.47
68.35 69.08 69.34 70.68 71.39 71.20 70.99 70.22 72.16 70.66 70.91 69.21 68.78 68.36 69.21 68.93 68.89 68.91 67.99 66.81 66.36 66.23 64.54 64.11 64.40 62.95 61.71 62.99 62.77 59.57 55.95 54.23 57.49 61.47 62.50 63.48 63.80 64.96 65.48 66.81 67.28 67.94 68.74
67.52 68.51 69.27 70.40 70.29 70.55 71.92 70.27 70.14 67.78 66.06 67.68 68.45 67.55 68.58 68.66 68.04 68.06 67.55 66.64 66.31 65.96 64.97 64.74 65.27 63.82 63.30 60.31 62.16 62.68 62.30 60.14 55.57 55.19 61.29 62.31 63.95 64.10 65.29 66.34 67.01 68.00 66.65
67.85 67.89 68.78 69.69 69.45 70.75 71.10 70.11 69.55 69.24 68.75 68.81 67.97 68.20 68.73 68.86 67.67 67.54 67.21 66.46 66.15 66.08 65.85 65.08 65.12 63.34 63.45 62.50 61.19 60.61 60.90 60.75 59.52 56.94 56.23 59.29 61.38 63.21 66.14 65.47 66.14 66.58 67.01
67.56 67.79 68.64 68.53 69.28 69.71 70.03 71.13 70.49 68.96 68.43 67.68 67.63 66.95 67.16 68.17 68.17 67.07 66.83 66.60 66.91 66.34 65.21 65.83 65.10 64.52 64.06 63.99 63.25 62.14 60.83 59.38 58.73 57.45 56.60 58.13 59.00 62.03 64.28 65.86 65.41 65.72 66.71